Douglas, WY

8:42 AM MDT on August 02, 2015 (GMT -0600)
Converse County | | Change Station
CLOSE
Current Station
Airport
Location: Douglas,
Elevation: 4928 ft
Nearby Weather Stations

Elev 4928 ft 42.80 °N, 105.38 °W | Updated 49 minutes ago

Partly Cloudy
Partly Cloudy
67 °F
Feels Like 67 °F
N
7
Wind Variable Wind from NW

Today
High -- | Low -- °F
--% Chance of Precip.
Yesterday
High -- | Low -- °F
Precip. -- in
5:53 AM 8:21 PM
Waning Gibbous, 93% visible
Pressure 29.89 in
Visibility 10.0 miles
Clouds Clear
Dew Point 44 °F
Humidity 44%
Rainfall 0.00 in
Snow Depth Not available.
UV 2 out of 12
Pollen 7.10 out of 12
Air Quality Not available.
Flu Activity Not available.
METAR KDGW 021353Z AUTO 31006KT 10SM CLR 19/07 A3009 RMK AO2 SLP122 T01940067

More Conditions Fewer Conditions

Pressure 29.89 in
Visibility 10.0 miles
Clouds Clear
Dew Point 44 °F
Humidity 44%
Rainfall 0.00 in
Snow Depth Not available.
UV 2 out of 12
Pollen 7.10 out of 12
Air Quality Not available.
Flu Activity Not available.
METAR KDGW 021353Z AUTO 31006KT 10SM CLR 19/07 A3009 RMK AO2 SLP122 T01940067

More Conditions Fewer Conditions

10-Day Weather Forecast

×

Almanac

Astronomy

Aug. 02, 2015 Rise Set
Actual Time
Civil Twilight
Nautical Twilight
Astronomical Twilight
Moon
Length of Visible Light
Length of Day
Tomorrow will be .
, % of the Moon is Illuminated

Today's Extremes

State Highs State Lows

Community

WunderPhotos

Upload Photos

1,843,268 photos uploaded!

WunderBlogs® & News

Nearby

Air Quality

  Air Quality AQ Index Pollutant
Not available.

Snow Depth

Station Depth Elevation

Earthquake Activity

City Distance Mag. Time & Date
Minimum magnitude displayed is 2.5.

Coastal Water Temperatures

Place Temperature

Stations

Nearby Weather Stations

Station Location Temp. Windchill Dew Point Humidity Wind Precip. Elev Updated Type